QPF
0.00 0.00 0.00 0.00 0.00 0.00 0.00 0.00 0.00 0.01 0.01 0.02 0.03 0.02 0.02 0.03 0.03 0.03 0.04 0.05 0.05 0.06 0.08 0.08 0.06 0.05 0.05 0.05 0.06 0.05 0.03 0.04 0.05 0.05 0.03 0.02 0.02 0.03 0.03 0.03 0.02 0.01 0.00 0.00
0.00 0.00 0.00 0.00 0.00 0.00 0.00 0.00 0.01 0.01 0.01 0.02 0.05 0.03 0.02 0.02 0.03 0.04 0.05 0.04 0.04 0.05 0.05 0.05 0.05 0.05 0.04 0.05 0.05 0.05 0.09 0.12 0.08 0.05 0.03 0.04 0.04 0.04 0.04 0.02 0.01 0.01 0.00 0.01
0.01 0.00 0.00 0.00 0.01 0.01 0.01 0.01 0.02 0.02 0.01 0.02 0.03 0.02 0.02 0.02 0.02 0.03 0.05 0.05 0.03 0.04 0.04 0.04 0.04 0.04 0.04 0.04 0.04 0.05 0.07 0.09 0.06 0.04 0.04 0.05 0.05 0.04 0.03 0.02 0.01 0.01 0.01 0.01
0.00 0.01 0.01 0.01 0.01 0.02 0.04 0.03 0.02 0.01 0.01 0.01 0.01 0.01 0.01 0.01 0.01 0.02 0.02 0.03 0.03 0.03 0.04 0.04 0.03 0.02 0.01 0.01 0.02 0.03 0.04 0.05 0.05 0.04 0.04 0.03 0.03 0.03 0.02 0.01 0.01 0.01 0.01 0.02
0.00 0.01 0.01 0.01 0.01 0.02 0.04 0.04 0.02 0.01 0.01 0.01 0.01 0.01 0.02 0.02 0.02 0.04 0.03 0.03 0.03 0.03 0.03 0.03 0.03 0.02 0.01 0.01 0.02 0.03 0.03 0.04 0.06 0.05 0.03 0.03 0.02 0.02 0.02 0.02 0.02 0.02 0.02 0.02
0.00 0.01 0.01 0.01 0.01 0.01 0.02 0.04 0.02 0.01 0.01 0.01 0.01 0.02 0.02 0.04 0.03 0.04 0.03 0.03 0.03 0.02 0.02 0.03 0.03 0.03 0.02 0.03 0.04 0.04 0.04 0.04 0.04 0.04 0.03 0.03 0.03 0.03 0.03 0.03 0.04 0.03 0.02 0.01
0.00 0.01 0.01 0.01 0.01 0.01 0.02 0.02 0.04 0.03 0.03 0.01 0.01 0.01 0.02 0.07 0.09 0.08 0.04 0.02 0.02 0.02 0.02 0.02 0.02 0.02 0.03 0.04 0.04 0.04 0.05 0.06 0.07 0.06 0.05 0.05 0.05 0.05 0.05 0.05 0.06 0.04 0.03 0.02
0.01 0.01 0.01 0.01 0.01 0.01 0.02 0.02 0.03 0.03 0.02 0.01 0.03 0.05 0.03 0.06 0.07 0.08 0.06 0.04 0.04 0.02 0.02 0.02 0.01 0.02 0.02 0.04 0.04 0.06 0.08 0.10 0.10 0.11 0.11 0.10 0.09 0.08 0.09 0.08 0.08 0.06 0.04 0.03
0.01 0.01 0.01 0.00 0.01 0.01 0.01 0.01 0.01 0.01 0.01 0.01 0.02 0.02 0.03 0.07 0.07 0.09 0.08 0.04 0.03 0.02 0.02 0.02 0.02 0.02 0.02 0.03 0.03 0.05 0.06 0.08 0.11 0.14 0.14 0.15 0.15 0.12 0.09 0.08 0.07 0.06 0.05 0.05
0.02 0.01 0.01 0.01 0.01 0.01 0.01 0.01 0.01 0.01 0.01 0.01 0.01 0.02 0.02 0.04 0.08 0.06 0.04 0.03 0.03 0.02 0.02 0.02 0.02 0.02 0.03 0.03 0.03 0.05 0.03 0.03 0.06 0.07 0.10 0.10 0.09 0.09 0.07 0.05 0.04 0.05 0.05 0.05
0.04 0.03 0.02 0.02 0.01 0.01 0.01 0.01 0.01 0.00 0.01 0.02 0.02 0.02 0.02 0.04 0.07 0.07 0.05 0.05 0.05 0.04 0.03 0.02 0.02 0.03 0.03 0.03 0.03 0.04 0.03 0.03 0.03 0.04 0.05 0.05 0.04 0.03 0.03 0.02 0.02 0.03 0.03 0.04
0.07 0.05 0.04 0.02 0.02 0.01 0.01 0.01 0.01 0.01 0.01 0.01 0.02 0.02 0.02 0.02 0.03 0.03 0.03 0.03 0.04 0.04 0.03 0.03 0.03 0.03 0.03 0.03 0.03 0.04 0.03 0.03 0.03 0.02 0.02 0.02 0.02 0.02 0.02 0.02 0.03 0.03 0.02 0.03
0.09 0.06 0.06 0.04 0.03 0.02 0.01 0.02 0.02 0.01 0.01 0.01 0.01 0.02 0.02 0.02 0.02 0.01 0.01 0.02 0.02 0.01 0.02 0.02 0.02 0.03 0.03 0.03 0.03 0.04 0.04 0.03 0.03 0.02 0.01 0.02 0.02 0.03 0.03 0.03 0.04 0.04 0.04 0.04
0.06 0.06 0.06 0.05 0.03 0.02 0.02 0.02 0.02 0.02 0.02 0.03 0.02 0.02 0.02 0.01 0.01 0.01 0.01 0.02 0.02 0.02 0.02 0.02 0.02 0.02 0.02 0.04 0.04 0.04 0.04 0.04 0.03 0.02 0.02 0.02 0.03 0.03 0.03 0.04 0.04 0.05 0.06 0.07
0.05 0.05 0.05 0.02 0.01 0.01 0.01 0.01 0.02 0.04 0.02 0.02 0.02 0.02 0.03 0.02 0.02 0.02 0.03 0.03 0.03 0.03 0.03 0.02 0.02 0.02 0.02 0.02 0.03 0.03 0.04 0.04 0.03 0.02 0.02 0.02 0.03 0.06 0.07 0.07 0.06 0.05 0.06 0.08
0.04 0.05 0.04 0.02 0.01 0.01 0.01 0.01 0.02 0.03 0.03 0.03 0.03 0.02 0.03 0.04 0.02 0.03 0.04 0.04 0.03 0.03 0.03 0.03 0.02 0.02 0.02 0.02 0.02 0.02 0.02 0.03 0.03 0.02 0.02 0.02 0.01 0.02 0.04 0.06 0.08 0.06 0.04 0.04
0.02 0.02 0.02 0.02 0.01 0.01 0.01 0.02 0.02 0.03 0.03 0.03 0.04 0.04 0.03 0.03 0.03 0.03 0.04 0.04 0.04 0.03 0.03 0.03 0.02 0.01 0.02 0.02 0.02 0.02 0.03 0.02 0.02 0.02 0.02 0.01 0.02 0.03 0.03 0.03 0.03 0.03 0.03 0.03
0.02 0.02 0.02 0.02 0.02 0.02 0.02 0.02 0.04 0.03 0.03 0.03 0.04 0.03 0.03 0.03 0.03 0.04 0.03 0.03 0.03 0.03 0.03 0.02 0.02 0.02 0.01 0.01 0.02 0.03 0.03 0.02 0.02 0.02 0.02 0.02 0.02 0.04 0.04 0.04 0.03 0.02 0.02 0.03
0.02 0.02 0.02 0.02 0.01 0.01 0.02 0.02 0.03 0.04 0.03 0.03 0.04 0.03 0.03 0.03 0.03 0.03 0.03 0.03 0.04 0.03 0.03 0.02 0.02 0.02 0.02 0.02 0.03 0.03 0.03 0.03 0.03 0.03 0.03 0.03 0.03 0.03 0.03 0.02 0.03 0.03 0.03 0.02
0.02 0.02 0.02 0.02 0.02 0.02 0.03 0.03 0.04 0.04 0.06 0.07 0.05 0.03 0.02 0.03 0.03 0.03 0.03 0.03 0.03 0.03 0.03 0.03 0.03 0.03 0.03 0.04 0.04 0.03 0.03 0.03 0.03 0.04 0.04 0.04 0.03 0.03 0.03 0.04 0.04 0.04 0.03 0.03
0.02 0.02 0.02 0.01 0.01 0.02 0.04 0.06 0.06 0.05 0.04 0.04 0.04 0.03 0.03 0.03 0.02 0.03 0.03 0.02 0.02 0.02 0.03 0.03 0.04 0.04 0.04 0.04 0.04 0.03 0.03 0.04 0.04 0.05 0.05 0.04 0.03 0.03 0.03 0.03 0.03 0.03 0.03 0.04
0.03 0.03 0.02 0.01 0.02 0.02 0.02 0.01 0.01 0.01 0.01 0.01 0.02 0.02 0.02 0.03 0.03 0.03 0.03 0.03 0.02 0.02 0.02 0.03 0.04 0.05 0.05 0.06 0.05 0.04 0.05 0.05 0.05 0.04 0.04 0.03 0.03 0.03 0.03 0.03 0.03 0.02 0.02 0.03
0.04 0.04 0.03 0.02 0.03 0.03 0.02 0.01 0.01 0.01 0.01 0.01 0.02 0.02 0.03 0.03 0.04 0.04 0.04 0.03 0.02 0.03 0.02 0.02 0.04 0.06 0.06 0.07 0.06 0.05 0.06 0.06 0.06 0.05 0.05 0.04 0.04 0.03 0.03 0.03 0.03 0.02 0.03 0.03
0.05 0.04 0.03 0.04 0.04 0.04 0.03 0.02 0.02 0.02 0.02 0.02 0.02 0.03 0.03 0.04 0.04 0.04 0.03 0.03 0.03 0.02 0.02 0.02 0.03 0.04 0.05 0.05 0.07 0.06 0.05 0.05 0.05 0.05 0.04 0.04 0.04 0.04 0.04 0.04 0.04 0.03 0.04 0.04
0.05 0.04 0.02 0.03 0.04 0.04 0.03 0.03 0.02 0.02 0.02 0.02 0.03 0.03 0.03 0.03 0.03 0.04 0.04 0.04 0.03 0.03 0.03 0.03 0.04 0.04 0.04 0.04 0.07 0.08 0.06 0.04 0.04 0.05 0.05 0.06 0.06 0.06 0.06 0.06 0.06 0.06 0.05 0.04
0.03 0.03 0.03 0.02 0.04 0.04 0.04 0.04 0.05 0.05 0.03 0.03 0.04 0.04 0.04 0.04 0.04 0.05 0.06 0.05 0.04 0.03 0.03 0.03 0.03 0.03 0.03 0.03 0.04 0.04 0.04 0.03 0.02 0.03 0.04 0.04 0.06 0.07 0.09 0.08 0.07 0.06 0.05 0.04
0.03 0.03 0.02 0.03 0.03 0.04 0.04 0.04 0.04 0.07 0.08 0.06 0.05 0.05 0.06 0.06 0.06 0.06 0.06 0.05 0.04 0.03 0.02 0.02 0.02 0.02 0.02 0.02 0.02 0.02 0.02 0.02 0.01 0.02 0.03 0.03 0.04 0.04 0.04 0.04 0.04 0.03 0.02 0.01
MSLP
1005.02 1005.66 1006.40 1007.20 1008.03 1008.84 1009.60 1010.27 1010.82 1011.24 1011.53 1011.72 1011.84 1011.93 1012.03 1012.15 1012.29 1012.45 1012.60 1012.73 1012.79 1012.79 1012.71 1012.57 1012.38 1012.17 1011.97 1011.79 1011.66 1011.56 1011.50 1011.44 1011.39 1011.32 1011.22 1011.10 1010.96 1010.81 1010.67 1010.55 1010.45 1010.38 1010.34 1010.32
1006.44 1007.16 1007.88 1008.55 1009.18 1009.76 1010.26 1010.69 1011.07 1011.41 1011.71 1012.01 1012.32 1012.63 1012.96 1013.28 1013.57 1013.81 1013.98 1014.04 1014.00 1013.85 1013.62 1013.34 1013.03 1012.73 1012.47 1012.24 1012.07 1011.92 1011.80 1011.68 1011.55 1011.39 1011.20 1011.00 1010.79 1010.58 1010.39 1010.23 1010.10 1009.99 1009.91 1009.85
1007.94 1008.70 1009.38 1009.95 1010.41 1010.76 1011.03 1011.26 1011.48 1011.71 1012.00 1012.35 1012.76 1013.22 1013.70 1014.15 1014.54 1014.83 1014.99 1015.00 1014.88 1014.64 1014.32 1013.96 1013.59 1013.24 1012.94 1012.69 1012.48 1012.30 1012.11 1011.92 1011.69 1011.43 1011.15 1010.85 1010.56 1010.29 1010.05 1009.85 1009.69 1009.56 1009.45 1009.35
1009.40 1010.16 1010.78 1011.24 1011.54 1011.71 1011.80 1011.85 1011.92 1012.06 1012.30 1012.65 1013.10 1013.63 1014.17 1014.68 1015.12 1015.42 1015.57 1015.55 1015.39 1015.11 1014.76 1014.37 1013.99 1013.64 1013.34 1013.09 1012.85 1012.63 1012.38 1012.10 1011.77 1011.41 1011.02 1010.64 1010.27 1009.94 1009.66 1009.44 1009.26 1009.11 1008.97 1008.84
1010.71 1011.41 1011.94 1012.29 1012.46 1012.49 1012.43 1012.35 1012.31 1012.36 1012.55 1012.87 1013.31 1013.84 1014.39 1014.91 1015.34 1015.63 1015.77 1015.74 1015.57 1015.29 1014.95 1014.59 1014.24 1013.93 1013.65 1013.40 1013.15 1012.89 1012.58 1012.22 1011.80 1011.34 1010.86 1010.39 1009.96 1009.59 1009.29 1009.05 1008.86 1008.70 1008.56 1008.40
1011.76 1012.36 1012.78 1013.02 1013.09 1013.01 1012.86 1012.70 1012.59 1012.59 1012.73 1013.01 1013.42 1013.92 1014.44 1014.93 1015.33 1015.61 1015.73 1015.70 1015.55 1015.30 1015.01 1014.69 1014.40 1014.13 1013.89 1013.65 1013.39 1013.09 1012.73 1012.29 1011.80 1011.26 1010.71 1010.19 1009.72 1009.32 1009.01 1008.77 1008.58 1008.42 1008.27 1008.10
1012.48 1012.95 1013.26 1013.40 1013.40 1013.27 1013.09 1012.90 1012.78 1012.76 1012.88 1013.14 1013.52 1013.97 1014.45 1014.90 1015.26 1015.50 1015.62 1015.59 1015.46 1015.26 1015.01 1014.76 1014.53 1014.30 1014.09 1013.86 1013.60 1013.27 1012.86 1012.37 1011.82 1011.23 1010.64 1010.09 1009.60 1009.21 1008.90 1008.67 1008.50 1008.35 1008.19 1008.01
1012.86 1013.19 1013.40 1013.47 1013.43 1013.30 1013.14 1012.99 1012.90 1012.92 1013.05 1013.31 1013.67 1014.09 1014.53 1014.93 1015.25 1015.46 1015.56 1015.54 1015.44 1015.27 1015.07 1014.87 1014.68 1014.49 1014.29 1014.07 1013.79 1013.44 1013.00 1012.49 1011.91 1011.31 1010.71 1010.16 1009.69 1009.31 1009.03 1008.82 1008.67 1008.53 1008.37 1008.18
1012.93 1013.14 1013.27 1013.32 1013.28 1013.20 1013.10 1013.03 1013.02 1013.11 1013.29 1013.57 1013.94 1014.34 1014.74 1015.10 1015.38 1015.56 1015.64 1015.62 1015.53 1015.39 1015.22 1015.04 1014.87 1014.70 1014.51 1014.28 1013.99 1013.62 1013.18 1012.66 1012.09 1011.50 1010.94 1010.42 1009.99 1009.65 1009.41 1009.23 1009.10 1008.97 1008.81 1008.60
1012.77 1012.91 1013.00 1013.05 1013.06 1013.05 1013.06 1013.09 1013.19 1013.37 1013.62 1013.94 1014.32 1014.71 1015.08 1015.41 1015.65 1015.80 1015.86 1015.83 1015.74 1015.60 1015.44 1015.27 1015.10 1014.92 1014.72 1014.48 1014.18 1013.82 1013.38 1012.88 1012.35 1011.81 1011.30 1010.85 1010.47 1010.19 1009.98 1009.84 1009.72 1009.60 1009.45 1009.23
1012.50 1012.61 1012.71 1012.79 1012.87 1012.96 1013.07 1013.23 1013.43 1013.70 1014.01 1014.38 1014.77 1015.15 1015.49 1015.78 1015.99 1016.11 1016.15 1016.11 1016.00 1015.86 1015.69 1015.51 1015.32 1015.13 1014.91 1014.65 1014.35 1013.99 1013.58 1013.12 1012.65 1012.18 1011.74 1011.36 1011.06 1010.83 1010.66 1010.54 1010.44 1010.32 1010.17 1009.95
1012.25 1012.37 1012.50 1012.64 1012.79 1012.97 1013.19 1013.44 1013.73 1014.06 1014.42 1014.80 1015.19 1015.55 1015.87 1016.12 1016.30 1016.39 1016.40 1016.34 1016.23 1016.07 1015.89 1015.69 1015.48 1015.26 1015.02 1014.75 1014.45 1014.11 1013.73 1013.33 1012.92 1012.53 1012.17 1011.86 1011.62 1011.44 1011.30 1011.20 1011.11 1010.99 1010.83 1010.61
1012.09 1012.25 1012.42 1012.62 1012.85 1013.10 1013.39 1013.70 1014.04 1014.40 1014.77 1015.14 1015.50 1015.83 1016.10 1016.32 1016.46 1016.53 1016.53 1016.46 1016.34 1016.17 1015.98 1015.77 1015.54 1015.30 1015.04 1014.77 1014.46 1014.14 1013.80 1013.45 1013.10 1012.78 1012.49 1012.24 1012.04 1011.90 1011.78 1011.69 1011.59 1011.47 1011.31 1011.10
1012.06 1012.26 1012.49 1012.74 1013.01 1013.31 1013.63 1013.97 1014.31 1014.66 1015.00 1015.33 1015.64 1015.91 1016.14 1016.32 1016.44 1016.49 1016.48 1016.42 1016.30 1016.14 1015.95 1015.74 1015.50 1015.25 1014.98 1014.69 1014.39 1014.09 1013.77 1013.46 1013.16 1012.88 1012.64 1012.43 1012.26 1012.12 1012.01 1011.90 1011.79 1011.66 1011.50 1011.30
1012.15 1012.38 1012.65 1012.93 1013.23 1013.54 1013.86 1014.17 1014.48 1014.79 1015.07 1015.34 1015.58 1015.80 1015.98 1016.12 1016.22 1016.28 1016.28 1016.23 1016.14 1016.00 1015.83 1015.62 1015.39 1015.13 1014.85 1014.56 1014.26 1013.95 1013.65 1013.36 1013.08 1012.82 1012.59 1012.40 1012.23 1012.08 1011.95 1011.82 1011.69 1011.55 1011.38 1011.20
1012.28 1012.54 1012.82 1013.12 1013.42 1013.72 1014.01 1014.29 1014.54 1014.78 1014.99 1015.19 1015.37 1015.53 1015.68 1015.80 1015.89 1015.96 1015.99 1015.98 1015.92 1015.82 1015.68 1015.49 1015.26 1015.01 1014.72 1014.42 1014.10 1013.79 1013.47 1013.17 1012.89 1012.63 1012.39 1012.18 1011.98 1011.81 1011.65 1011.49 1011.33 1011.17 1011.00 1010.83
1012.40 1012.67 1012.96 1013.25 1013.54 1013.82 1014.07 1014.30 1014.49 1014.66 1014.81 1014.95 1015.08 1015.20 1015.32 1015.44 1015.55 1015.64 1015.71 1015.74 1015.73 1015.67 1015.56 1015.40 1015.18 1014.92 1014.63 1014.31 1013.97 1013.63 1013.29 1012.96 1012.65 1012.36 1012.09 1011.84 1011.61 1011.40 1011.20 1011.00 1010.81 1010.63 1010.46 1010.29
1012.44 1012.71 1013.00 1013.28 1013.56 1013.81 1014.03 1014.22 1014.37 1014.49 1014.60 1014.70 1014.79 1014.90 1015.02 1015.15 1015.29 1015.42 1015.53 1015.61 1015.65 1015.63 1015.55 1015.40 1015.19 1014.93 1014.61 1014.27 1013.90 1013.52 1013.14 1012.77 1012.42 1012.09 1011.78 1011.49 1011.22 1010.97 1010.73 1010.50 1010.28 1010.08 1009.90 1009.74
1012.40 1012.67 1012.94 1013.22 1013.49 1013.72 1013.93 1014.09 1014.23 1014.33 1014.43 1014.52 1014.62 1014.74 1014.87 1015.03 1015.20 1015.37 1015.52 1015.64 1015.71 1015.72 1015.66 1015.52 1015.31 1015.03 1014.69 1014.32 1013.91 1013.49 1013.08 1012.67 1012.28 1011.91 1011.56 1011.24 1010.94 1010.65 1010.38 1010.13 1009.89 1009.67 1009.48 1009.32
1012.31 1012.57 1012.84 1013.12 1013.38 1013.62 1013.82 1013.99 1014.13 1014.25 1014.36 1014.48 1014.60 1014.75 1014.92 1015.11 1015.31 1015.51 1015.69 1015.84 1015.92 1015.94 1015.88 1015.73 1015.51 1015.21 1014.85 1014.45 1014.01 1013.56 1013.11 1012.67 1012.26 1011.86 1011.50 1011.16 1010.84 1010.54 1010.25 1009.99 1009.75 1009.52 1009.32 1009.15
1012.24 1012.49 1012.76 1013.04 1013.30 1013.55 1013.77 1013.97 1014.14 1014.29 1014.44 1014.60 1014.76 1014.95 1015.16 1015.38 1015.60 1015.82 1016.01 1016.15 1016.23 1016.24 1016.16 1016.00 1015.75 1015.43 1015.05 1014.62 1014.17 1013.70 1013.24 1012.80 1012.37 1011.98 1011.61 1011.27 1010.96 1010.66 1010.39 1010.13 1009.89 1009.67 1009.47 1009.29
1012.25 1012.50 1012.77 1013.04 1013.32 1013.58 1013.83 1014.05 1014.27 1014.47 1014.67 1014.87 1015.08 1015.30 1015.54 1015.78 1016.01 1016.22 1016.40 1016.52 1016.58 1016.55 1016.45 1016.26 1015.99 1015.65 1015.25 1014.82 1014.36 1013.90 1013.45 1013.01 1012.61 1012.23 1011.89 1011.57 1011.29 1011.02 1010.77 1010.53 1010.31 1010.09 1009.90 1009.71
1012.38 1012.63 1012.89 1013.16 1013.45 1013.72 1014.00 1014.26 1014.51 1014.76 1015.00 1015.25 1015.50 1015.75 1016.00 1016.24 1016.46 1016.65 1016.79 1016.87 1016.89 1016.82 1016.68 1016.46 1016.17 1015.81 1015.42 1014.99 1014.55 1014.11 1013.69 1013.29 1012.92 1012.58 1012.28 1012.01 1011.76 1011.53 1011.31 1011.11 1010.91 1010.72 1010.53 1010.35
1012.64 1012.87 1013.13 1013.40 1013.68 1013.97 1014.26 1014.55 1014.84 1015.13 1015.41 1015.68 1015.96 1016.22 1016.46 1016.69 1016.88 1017.02 1017.12 1017.15 1017.11 1017.00 1016.82 1016.57 1016.27 1015.91 1015.53 1015.12 1014.71 1014.31 1013.93 1013.58 1013.26 1012.97 1012.72 1012.49 1012.28 1012.09 1011.92 1011.74 1011.58 1011.41 1011.24 1011.07
1012.97 1013.20 1013.44 1013.71 1013.99 1014.28 1014.59 1014.90 1015.21 1015.51 1015.82 1016.11 1016.39 1016.65 1016.87 1017.06 1017.21 1017.31 1017.35 1017.32 1017.23 1017.07 1016.86 1016.59 1016.28 1015.93 1015.57 1015.20 1014.83 1014.48 1014.15 1013.85 1013.57 1013.33 1013.12 1012.93 1012.76 1012.61 1012.46 1012.32 1012.18 1012.03 1011.88 1011.72
1013.30 1013.53 1013.77 1014.02 1014.30 1014.60 1014.91 1015.23 1015.55 1015.87 1016.18 1016.48 1016.75 1016.98 1017.18 1017.33 1017.43 1017.47 1017.45 1017.37 1017.23 1017.04 1016.79 1016.52 1016.21 1015.88 1015.54 1015.21 1014.89 1014.58 1014.30 1014.04 1013.81 1013.60 1013.42 1013.26 1013.11 1012.97 1012.85 1012.72 1012.60 1012.47 1012.34 1012.20
1013.56 1013.78 1014.02 1014.28 1014.56 1014.86 1015.17 1015.50 1015.82 1016.15 1016.46 1016.74 1016.99 1017.20 1017.36 1017.47 1017.52 1017.50 1017.43 1017.31 1017.13 1016.90 1016.65 1016.36 1016.07 1015.76 1015.45 1015.16 1014.88 1014.61 1014.36 1014.13 1013.93 1013.74 1013.57 1013.41 1013.27 1013.13 1013.01 1012.89 1012.78 1012.66 1012.54 1012.41
Thickness
5778 5789 5793 5791 5795 5798 5788 5781 5771 5775 5780 5790 5799 5803 5804 5805 5803 5802 5799 5796 5794 5792 5791 5791 5790 5788 5787 5785 5782 5779 5775 5771 5768 5765 5762 5759 5756 5752 5749 5746 5744 5741 5738 5735
5769 5783 5786 5784 5791 5795 5792 5790 5785 5783 5781 5799 5802 5801 5798 5798 5799 5795 5794 5794 5792 5790 5787 5786 5785 5784 5783 5781 5778 5776 5771 5768 5765 5762 5758 5755 5752 5748 5744 5742 5739 5736 5733 5730
5745 5766 5771 5759 5779 5784 5783 5788 5786 5775 5782 5793 5790 5791 5791 5793 5793 5792 5791 5790 5787 5787 5784 5782 5781 5781 5778 5777 5775 5770 5766 5764 5760 5756 5753 5750 5748 5744 5740 5737 5734 5731 5728 5725
5733 5745 5732 5757 5787 5790 5783 5783 5789 5788 5790 5791 5791 5791 5792 5794 5790 5787 5786 5784 5782 5782 5779 5778 5778 5777 5775 5772 5769 5764 5761 5758 5755 5752 5748 5746 5742 5739 5736 5733 5729 5726 5723 5720
5718 5720 5732 5757 5775 5779 5772 5766 5782 5783 5786 5787 5787 5782 5778 5785 5786 5783 5782 5781 5779 5778 5776 5773 5772 5770 5768 5764 5761 5758 5755 5753 5751 5748 5744 5741 5737 5735 5732 5727 5724 5721 5719 5716
5715 5714 5714 5741 5772 5786 5773 5750 5774 5778 5777 5777 5776 5758 5761 5776 5777 5776 5776 5776 5774 5773 5771 5766 5764 5763 5760 5756 5753 5751 5750 5748 5746 5744 5740 5737 5734 5731 5727 5723 5719 5717 5714 5712
5710 5708 5720 5750 5770 5773 5740 5741 5766 5771 5772 5770 5765 5765 5769 5771 5770 5770 5770 5769 5768 5766 5762 5759 5758 5755 5750 5747 5745 5746 5745 5743 5740 5737 5735 5732 5729 5725 5722 5718 5714 5711 5708 5706
5700 5699 5709 5750 5757 5747 5745 5760 5764 5766 5767 5765 5764 5765 5764 5763 5762 5762 5760 5759 5759 5756 5753 5752 5751 5748 5744 5741 5741 5740 5738 5735 5732 5729 5727 5725 5721 5718 5714 5711 5707 5703 5700 5698
5702 5706 5728 5743 5748 5753 5755 5754 5758 5759 5759 5760 5757 5756 5755 5753 5752 5752 5752 5751 5751 5749 5745 5744 5743 5741 5737 5736 5735 5732 5729 5726 5723 5721 5718 5716 5713 5709 5706 5702 5699 5696 5693 5691
5700 5710 5723 5734 5742 5748 5751 5751 5753 5754 5753 5753 5748 5747 5746 5744 5742 5741 5742 5742 5742 5739 5735 5733 5733 5732 5731 5729 5726 5723 5720 5718 5716 5712 5710 5708 5706 5704 5700 5696 5693 5691 5688 5684
5691 5703 5713 5722 5728 5735 5742 5744 5745 5746 5746 5745 5742 5738 5737 5735 5733 5732 5732 5732 5732 5729 5726 5725 5725 5723 5722 5720 5718 5714 5711 5709 5708 5705 5702 5699 5698 5696 5694 5692 5690 5686 5683 5680
5681 5694 5696 5703 5717 5726 5729 5730 5733 5733 5733 5735 5733 5729 5728 5727 5726 5724 5723 5722 5720 5718 5717 5717 5716 5714 5714 5712 5709 5705 5702 5701 5699 5696 5694 5692 5689 5686 5686 5684 5683 5681 5678 5675
5689 5696 5698 5704 5711 5716 5718 5720 5723 5723 5723 5721 5722 5720 5717 5715 5715 5715 5714 5713 5711 5709 5709 5708 5707 5706 5706 5705 5702 5698 5696 5694 5692 5689 5687 5684 5682 5679 5676 5675 5674 5672 5670 5667
5689 5689 5688 5695 5700 5707 5710 5711 5712 5713 5713 5712 5710 5709 5706 5705 5704 5704 5704 5705 5704 5703 5701 5699 5698 5697 5698 5697 5695 5692 5690 5689 5686 5683 5681 5678 5675 5673 5671 5668 5664 5662 5661 5659
5681 5682 5681 5688 5693 5698 5701 5702 5700 5699 5699 5699 5699 5697 5695 5694 5693 5694 5695 5695 5694 5693 5692 5690 5689 5690 5691 5689 5687 5685 5683 5681 5679 5677 5675 5672 5670 5667 5665 5662 5659 5656 5653 5651
5673 5674 5677 5678 5682 5686 5689 5690 5688 5686 5688 5688 5687 5687 5686 5686 5686 5685 5685 5685 5683 5681 5681 5681 5681 5683 5683 5682 5680 5678 5676 5676 5673 5670 5666 5664 5662 5660 5657 5655 5652 5649 5647 5644
5664 5665 5667 5669 5672 5674 5677 5678 5678 5677 5677 5676 5678 5678 5677 5676 5676 5675 5674 5675 5675 5675 5675 5674 5674 5676 5676 5675 5673 5671 5669 5667 5665 5662 5659 5657 5655 5653 5651 5649 5646 5643 5642 5639
5664 5665 5664 5665 5666 5666 5667 5669 5670 5669 5668 5668 5668 5668 5667 5666 5665 5666 5666 5667 5667 5667 5667 5666 5667 5668 5668 5667 5666 5664 5661 5659 5656 5654 5652 5650 5649 5647 5644 5642 5640 5637 5635 5632
5658 5658 5659 5660 5660 5660 5660 5660 5660 5661 5662 5660 5657 5656 5657 5658 5658 5658 5659 5658 5657 5656 5658 5659 5660 5660 5660 5660 5659 5656 5654 5652 5650 5648 5646 5644 5642 5640 5637 5635 5633 5630 5627 5624
5650 5651 5652 5653 5654 5653 5652 5653 5653 5653 5653 5652 5649 5649 5648 5649 5650 5650 5651 5650 5651 5652 5652 5652 5652 5653 5653 5652 5652 5650 5648 5646 5643 5641 5639 5637 5635 5633 5630 5628 5626 5623 5620 5617
5642 5644 5644 5645 5645 5647 5647 5647 5645 5644 5644 5644 5642 5640 5641 5642 5643 5643 5642 5641 5644 5646 5645 5646 5645 5645 5645 5645 5644 5643 5641 5639 5637 5635 5633 5630 5628 5626 5624 5621 5619 5616 5613 5610
5635 5636 5637 5638 5638 5638 5639 5639 5639 5638 5638 5637 5637 5636 5635 5635 5636 5637 5637 5637 5639 5639 5639 5638 5638 5638 5638 5638 5637 5636 5634 5632 5630 5628 5626 5624 5622 5620 5617 5615 5612 5608 5605 5603
5629 5630 5630 5631 5631 5631 5632 5633 5633 5632 5632 5631 5631 5631 5631 5631 5631 5630 5629 5632 5633 5633 5632 5632 5632 5632 5631 5630 5629 5628 5627 5625 5623 5621 5619 5618 5616 5613 5610 5607 5605 5601 5597 5594
5623 5623 5623 5625 5626 5625 5624 5626 5626 5627 5626 5626 5627 5628 5627 5626 5626 5627 5627 5628 5628 5628 5627 5626 5626 5626 5625 5623 5621 5620 5619 5617 5615 5614 5613 5610 5608 5605 5602 5599 5596 5592 5589 5586
5618 5618 5618 5618 5618 5618 5619 5619 5619 5620 5620 5620 5622 5623 5623 5623 5621 5622 5622 5622 5622 5621 5620 5619 5619 5618 5617 5616 5615 5613 5612 5610 5609 5607 5605 5602 5599 5596 5593 5590 5587 5584 5580 5577
5613 5612 5613 5613 5614 5614 5614 5614 5613 5614 5615 5615 5616 5618 5618 5619 5618 5617 5616 5615 5615 5614 5613 5612 5611 5610 5610 5609 5607 5606 5604 5603 5601 5599 5597 5594 5592 5589 5586 5582 5580 5576 5573 5570
5608 5608 5608 5609 5609 5610 5610 5610 5610 5610 5611 5611 5610 5612 5612 5613 5612 5610 5609 5609 5608 5607 5606 5605 5605 5603 5602 5601 5600 5598 5596 5594 5592 5590 5588 5586 5583 5580 5577 5574 5571 5568 5564 5562